"Pseudo-MPEC" for P10OHI7

Created 2019 Jun 15 19:08:10 UT using Find_Orb

Click here for an explanation of pseudo-MPECs

 
 Astrometry: 
     P10OHI7  C2019 06 03I;AwL^[v:?Yn_UG1ibJQ9+I1mD^c96?c+``Wxv-8;f`TBbeeJi=tF51
     P10OHI7  C2019 06 03?NBg_W#$tb?5sq10GJ4i2.\i$TD(`oysL#Hhv7anB$(iNX;pfQ:DF51
     P10OHI7  C2019 06 03+Xhhr*7qXNZ,KqHssjQUY%KktB1L\UWnxE@\77nU?NaDE/=rSnM2F51
     P10OHI7  C2019 06 03Ny#Huht1DR%BQy$hjsC/!_T!Hqsf!h:TFbO47:XCsTtr3=b`:qaSF51
     P10OHI7 KC2019 06 06Kbw6XckFWElsNAstrometry[0hmS;H(35yuu9redacted;F6GLSIJ04
     P10OHI7 KC2019 06 06Ii'fZ'wYtpa/')ZD$W9;,h/,%V2XY[!`!5AxnooU$P8'0\+'myBSJ04
     P10OHI7 |C2019 06 06g+_l;rJt-K4c`Va.K0=P`U1Kk,^;Nk]4+OO#TJdY8Mtni\tSTJnc807
     P10OHI7 |C2019 06 06[sUQ%mGS_*Aj3qGAueU3mO\6eVi?]);V^F5+mCDQd4e55click`0807
     P10OHI7 |C2019 06 06U;xHDZ^06')p?2eOJ1eV%.Vriu.X\r3Qp5v*s`t!iDt/IA46Bk0o807
     P10OHI7  C2019 06 07.41234 20 32 52.29 -15 31 23.2    ~67AM       VNEOCPI52
     P10OHI7  C2019 06 07.41592 20 32 52.57 -15 31 21.1    ~67AM       VNEOCPI52
     P10OHI7  C2019 06 07.41759 20 32 52.64 -15 31 19.3    ~67AM       VNEOCPI52
     P10OHI7  C2019 06 07.41925 20 32 52.96 -15 31 15.9    ~67AM 21.2 GVNEOCPI52
     P10OHI7 HC2019 06 09Z`WlBOZMoI^CcYxS#r/gA5.0Lb,=rUQX2wTW(p'+TJIgHEt12o@%691
     P10OHI7  C2019 06 09.43467 20 35 27.46 -15 00 33.7    ~69B7 20.8 GVNEOCPI52
     P10OHI7 HC2019 06 09L\fCTAtg.ru$)Wt0=(Zfphere\h;0SMSG_)KI7GxX/JT3S1ad(ix691
     P10OHI7  C2019 06 09.43772 20 35 27.69 -15 00 30.4    ~69B7 21.5 GVNEOCPI52
     P10OHI7 HC2019 06 09n_5\TEi[KC(1#e6W7$5NC3\/tF7x`W3v23fm^/PIf;:lL+K,S_s5691
     P10OHI7  C2019 06 09.44077 20 35 27.92 -15 00 28.1    ~69B7 20.5 GVNEOCPI52
     P10OHI7  C2019 06 09.44381 20 35 28.11 -15 00 25.2    ~69B7 20.6 GVNEOCPI52
     P10OHI7 KC2019 06 12HH5:fhCUvUhb#'KS*kHD8u*c7jpPc`S1OmQ=musC*a`-B1:MWcKo691
     P10OHI7 KC2019 06 128UX)y(YchfNY[U.J_J0Glu;?R$EGpTYyTY=*EEYK8_ZFctpMA=I\691
     P10OHI7 KC2019 06 126U;[W16j1jfor,DakC,mV2+pF,Y@explanationV-;s0xd?mEPX5691

Station data:
(691) Steward Observatory, Kitt Peak - Spacewatch  (N31.962174 W111.600327)
   US/Arizona.  Observer J. V. Scotti. 0.9-m f/3 reflector + CCD.
(807) Cerro Tololo Observatory, La Serena  (S30.169136 W70.805900)  Chile.
(F51) Pan-STARRS 1, Haleakala  (N20.707235 W156.255910)  US/Hawaii.
   Observers N. Primak, A. Schultz, S. Watters, J. Thiel, T. Goggia. Measurer
   PS1 Science Consortium. 1.8-m Ritchey-Chrétien + CCD.
(I52) Steward Observatory, Mt. Lemmon Station  (N32.442547 W110.788920)
   US/Arizona.  Observers T. A. Pruyne, B. M. Africano, E. J. Christensen, G.
   A. Farneth, D. C. Fuls, A. R. Gibbs, A. D. Grauer, H. Groeller, J. A.
   Johnson, R. A. Kowalski, S. M. Larson, G. J. Leonard, R. L. Seaman, F. C.
   Shelly. 1.0-m reflector + CCD.
(J04) ESA Optical Ground Station, Tenerife  (N28.300924 W16.511830)  Canary
   Islands (Spain).  Observer D. Abreu. Measurers M. Micheli, D. Koschny, E.
   Schwab, M. Busch, A. Knöfel. 1.0-m f/4.4 reflector + CCD.

Orbital elements:  P10OHI7
   Perihelion 2019 Aug 26.688488 +/- 0.367 TT = 16:31:25 (JD 2458722.188488)
Epoch 2019 Jun 12.0 TT = JDT 2458646.5   Earth MOID: 0.3787   AutoNEOCP
M 336.87717971 +/- 0.31             (J2000 ecliptic)
n   0.30549983 +/- 0.0027           Peri.   66.55897 +/- 0.32
a   2.18337700 +/- 0.0129           Node   262.76454 +/- 0.055
e   0.3710489 +/- 0.00256           Incl.    6.11189 +/- 0.018
P   3.23                   H 20.0   G  0.15   U  8.8  
q 1.37323723 +/- 0.00261    Q 2.99351677 +/- 0.0236
From 23 observations 2019 June 3-12; mean residual 0".45
Residuals in arcseconds: 
190603 F51  .04-  .02-    190606 807  .11-  .06-    190609 I52  .10-  .25+    
190603 F51  .03+  .04-    190607 I52  .22-  .04-    190609 691  .28-  .28+    
190603 F51  .01-  .09-    190607 I52  .01+  1.2-    190609 I52  .11+  .27-    
190603 F51  .08-  .01+    190607 I52  .75-  .86-    190609 I52  .24-  .18-    
190606 J04  .06+  .44+    190607 I52  2.1+  1.0+    190612 691  .01+  .03+    
190606 J04  .04-  .10+    190609 691  .14-  .28+    190612 691  .06+  .02-    
190606 807  .06-  .01+    190609 I52  .32-  .23-    190612 691  .13+  .06-    
190606 807  .11-  .09+    190609 691  .08+  .13+    

Ephemerides (geocentric):
Date (UTC) HH   RA              Dec         delta   r     elong  mag " sig PA
---- -- -- --  -------------   -----------  ------ ------ -----  --- ---- ---
2019 06 15 19  20 42 56.594   -13 18 58.34  .61375 1.5101 134.4 21.1 .939 150
2019 06 15 20  20 42 59.335   -13 18 17.14  .61344 1.5099 134.4 21.1 .951 150
2019 06 15 21  20 43 02.074   -13 17 35.93  .61312 1.5098 134.4 21.1 .963 150
2019 06 15 22  20 43 04.810   -13 16 54.69  .61280 1.5096 134.4 21.1 .976 150
2019 06 15 23  20 43 07.543   -13 16 13.45  .61249 1.5095 134.5 21.1 .988 150
2019 06 16 00  20 43 10.273   -13 15 32.18  .61217 1.5093 134.5 21.1 1.00 150
2019 06 16 01  20 43 13.001   -13 14 50.90  .61186 1.5092 134.5 21.1 1.01 150
2019 06 16 02  20 43 15.725   -13 14 09.61  .61154 1.5091 134.5 21.1 1.03 150
2019 06 16 03  20 43 18.447   -13 13 28.29  .61122 1.5089 134.6 21.1 1.04 150
2019 06 16 04  20 43 21.167   -13 12 46.96  .61091 1.5088 134.6 21.1 1.05 150
2019 06 16 05  20 43 23.883   -13 12 05.62  .61059 1.5086 134.6 21.1 1.06 150
2019 06 16 06  20 43 26.597   -13 11 24.25  .61028 1.5085 134.6 21.1 1.08 150
2019 06 16 07  20 43 29.308   -13 10 42.87  .60996 1.5083 134.7 21.1 1.09 150
2019 06 16 08  20 43 32.016   -13 10 01.48  .60965 1.5082 134.7 21.1 1.10 150
2019 06 16 09  20 43 34.722   -13 09 20.07  .60933 1.5081 134.7 21.1 1.11 150
2019 06 16 10  20 43 37.425   -13 08 38.64  .60902 1.5079 134.7 21.1 1.13 150
2019 06 16 11  20 43 40.125   -13 07 57.19  .60870 1.5078 134.8 21.1 1.14 150
2019 06 16 12  20 43 42.822   -13 07 15.73  .60839 1.5076 134.8 21.1 1.15 150
2019 06 16 13  20 43 45.516   -13 06 34.26  .60808 1.5075 134.8 21.1 1.17 150
2019 06 16 14  20 43 48.208   -13 05 52.76  .60776 1.5073 134.8 21.1 1.18 150
2019 06 16 15  20 43 50.897   -13 05 11.25  .60745 1.5072 134.9 21.1 1.20 150
2019 06 16 16  20 43 53.583   -13 04 29.73  .60714 1.5070 134.9 21.1 1.21 150
2019 06 16 17  20 43 56.267   -13 03 48.18  .60682 1.5069 134.9 21.1 1.22 150
2019 06 16 18  20 43 58.947   -13 03 06.62  .60651 1.5068 134.9 21.1 1.24 150
2019 06 16 19  20 44 01.625   -13 02 25.05  .60620 1.5066 135.0 21.1 1.25 150
2019 06 16 20  20 44 04.300   -13 01 43.46  .60589 1.5065 135.0 21.1 1.26 150
2019 06 16 21  20 44 06.972   -13 01 01.85  .60557 1.5063 135.0 21.1 1.28 150
2019 06 16 22  20 44 09.642   -13 00 20.23  .60526 1.5062 135.0 21.1 1.29 150
2019 06 16 23  20 44 12.308   -12 59 38.59  .60495 1.5060 135.1 21.1 1.31 150
2019 06 17 00  20 44 14.972   -12 58 56.93  .60464 1.5059 135.1 21.1 1.32 150
2019 06 17 01  20 44 17.633   -12 58 15.26  .60433 1.5058 135.1 21.1 1.34 150
2019 06 17 02  20 44 20.292   -12 57 33.57  .60402 1.5056 135.1 21.1 1.35 150
2019 06 17 03  20 44 22.947   -12 56 51.87  .60371 1.5055 135.2 21.1 1.36 150
2019 06 17 04  20 44 25.600   -12 56 10.14  .60339 1.5053 135.2 21.1 1.38 150
2019 06 17 05  20 44 28.250   -12 55 28.41  .60308 1.5052 135.2 21.1 1.39 150
2019 06 17 06  20 44 30.897   -12 54 46.66  .60277 1.5050 135.2 21.1 1.41 150
2019 06 17 07  20 44 33.541   -12 54 04.89  .60246 1.5049 135.3 21.1 1.42 150
2019 06 17 08  20 44 36.183   -12 53 23.10  .60215 1.5048 135.3 21.1 1.44 150
2019 06 17 09  20 44 38.822   -12 52 41.30  .60184 1.5046 135.3 21.1 1.45 150
2019 06 17 10  20 44 41.457   -12 51 59.48  .60153 1.5045 135.4 21.0 1.47 150
2019 06 17 11  20 44 44.090   -12 51 17.65  .60122 1.5043 135.4 21.0 1.48 150
2019 06 17 12  20 44 46.721   -12 50 35.80  .60092 1.5042 135.4 21.0 1.50 150
2019 06 17 13  20 44 49.348   -12 49 53.94  .60061 1.5040 135.4 21.0 1.51 150
2019 06 17 14  20 44 51.973   -12 49 12.05  .60030 1.5039 135.5 21.0 1.53 150
2019 06 17 15  20 44 54.595   -12 48 30.16  .59999 1.5038 135.5 21.0 1.55 150
2019 06 17 16  20 44 57.214   -12 47 48.24  .59968 1.5036 135.5 21.0 1.56 150
2019 06 17 17  20 44 59.830   -12 47 06.32  .59937 1.5035 135.5 21.0 1.58 150
2019 06 17 18  20 45 02.443   -12 46 24.37  .59906 1.5033 135.6 21.0 1.59 150